DLH3469 KJFK-EDDF

Flight info

Callsign DLH3469
Flight time 7h 13m
Altitude 35000
Route GREKI DCT JUDDS DCT MARTN DCT CBIRD DCT MIILS N739B LOMSI/M083F360 DCT 55N050W 56N040W 56N030W 55N020W DCT DOGAL DCT BEXET/N0481F370 DCT MORAG DCT EMJEE DCT KONAN DCT KOK DCT SPI T180 NIVNU T847 IMCOM IMCOM1D
Aircraft A346/H-SDE2E3FGHIJ3J4J5M1RWXY/LB1D1

Departure

Time 2026-05-01 07:23
Airport John F. Kennedy International Airport (KJFK)

Arrival

Time 2026-05-01 14:37
Airport Frankfurt Main Airport (EDDF)
Time Latitude Longitude Altitude Speed Heading
2026-05-01 07:23 40.59414 -73.90094 4808 ft 208 kts 197°
2026-05-01 07:23 40.56533 -73.89461 6041 ft 217 kts 164°
2026-05-01 07:24 40.55095 -73.88779 6549 ft 224 kts 163°
2026-05-01 07:24 40.53615 -73.88029 6890 ft 240 kts 162°
2026-05-01 07:24 40.52006 -73.87203 7200 ft 256 kts 162°
2026-05-01 07:24 40.50308 -73.86322 7633 ft 268 kts 162°
2026-05-01 07:25 40.48556 -73.85359 8125 ft 278 kts 160°
2026-05-01 07:25 40.46768 -73.84287 8638 ft 286 kts 159°
2026-05-01 07:25 40.44949 -73.83126 9212 ft 293 kts 158°
2026-05-01 07:25 40.43160 -73.81767 9779 ft 304 kts 143°
2026-05-01 07:26 40.41779 -73.79609 10338 ft 315 kts 120°
2026-05-01 07:26 40.41086 -73.76893 10878 ft 324 kts 98°
2026-05-01 07:26 40.41250 -73.73880 11083 ft 340 kts 69°
2026-05-01 07:26 40.42448 -73.71167 11363 ft 348 kts 44°
2026-05-01 07:27 40.44192 -73.68906 11776 ft 357 kts 40°
2026-05-01 07:27 40.46034 -73.66636 12255 ft 366 kts 39°
2026-05-01 07:27 40.47940 -73.64350 12749 ft 374 kts 38°
2026-05-01 07:27 40.49881 -73.62082 13280 ft 381 kts 37°
2026-05-01 07:28 40.51900 -73.59779 13829 ft 387 kts 36°
2026-05-01 07:28 40.53973 -73.57478 14338 ft 392 kts 34°
2026-05-01 07:28 40.56328 -73.55650 14521 ft 395 kts 12°
2026-05-01 07:28 40.59027 -73.55016 14882 ft 395 kts
2026-05-01 07:29 40.61785 -73.54650 15373 ft 401 kts
2026-05-01 07:29 40.64573 -73.54191 15921 ft 406 kts
2026-05-01 07:29 40.67382 -73.53617 16496 ft 410 kts
2026-05-01 07:29 40.70212 -73.52956 17064 ft 414 kts
2026-05-01 07:30 40.73020 -73.52249 17613 ft 418 kts
2026-05-01 07:30 40.75888 -73.51494 18163 ft 422 kts
2026-05-01 07:30 40.78780 -73.50715 18646 ft 426 kts
2026-05-01 07:30 40.81694 -73.49919 19147 ft 429 kts
2026-05-01 07:31 40.84631 -73.49112 19622 ft 432 kts
2026-05-01 07:31 40.93574 -73.46638 21047 ft 442 kts
2026-05-01 07:32 40.99597 -73.44965 21986 ft 448 kts
2026-05-01 07:32 41.02658 -73.44114 22438 ft 451 kts
2026-05-01 07:33 41.06438 -73.43061 22991 ft 455 kts
2026-05-01 07:33 41.08490 -73.42488 23283 ft 457 kts
2026-05-01 07:34 41.11613 -73.41616 23690 ft 460 kts
2026-05-01 07:34 41.17921 -73.39852 24433 ft 466 kts
2026-05-01 07:34 41.21101 -73.38962 24830 ft 468 kts
2026-05-01 07:35 41.24264 -73.38075 25199 ft 471 kts
2026-05-01 07:35 41.27484 -73.37171 25552 ft 473 kts
2026-05-01 07:35 41.30715 -73.36262 25899 ft 476 kts
2026-05-01 07:35 41.33970 -73.35346 26249 ft 479 kts
2026-05-01 07:36 41.37239 -73.34425 26599 ft 481 kts
2026-05-01 07:36 41.40531 -73.33498 26965 ft 484 kts
2026-05-01 07:36 41.43837 -73.32532 27280 ft 489 kts
2026-05-01 07:36 41.47025 -73.30983 27543 ft 500 kts 21°
2026-05-01 07:37 41.52707 -73.25425 28198 ft 515 kts 41°
2026-05-01 07:37 41.55238 -73.22014 28621 ft 516 kts 43°
2026-05-01 07:37 41.57739 -73.18574 29071 ft 515 kts 42°
2026-05-01 07:38 41.60464 -73.15495 29440 ft 511 kts 30°
2026-05-01 07:38 41.63594 -73.13329 29811 ft 503 kts 16°
2026-05-01 07:38 41.70333 -73.11902 30559 ft 484 kts 351°
2026-05-01 07:39 41.73625 -73.12368 30921 ft 480 kts 347°
2026-05-01 07:39 41.76933 -73.12967 31279 ft 480 kts 347°
2026-05-01 07:39 41.83589 -73.14193 31801 ft 484 kts 347°
2026-05-01 07:40 41.86936 -73.14787 32077 ft 485 kts 347°
2026-05-01 07:40 41.90288 -73.15370 32413 ft 485 kts 347°
2026-05-01 07:40 41.93641 -73.15948 32751 ft 485 kts 347°
2026-05-01 07:40 41.96990 -73.16522 33068 ft 485 kts 347°
2026-05-01 07:41 42.00298 -73.17091 33360 ft 487 kts 348°
2026-05-01 07:41 42.03673 -73.17671 33541 ft 490 kts 348°
2026-05-01 07:41 42.10482 -73.18838 33964 ft 494 kts 348°
2026-05-01 07:42 42.13895 -73.19423 34171 ft 495 kts 348°
2026-05-01 07:42 42.17316 -73.20010 34380 ft 495 kts 348°
2026-05-01 07:42 42.20737 -73.20600 34586 ft 496 kts 348°
2026-05-01 07:42 42.24167 -73.21191 34779 ft 498 kts 348°
2026-05-01 07:43 42.27609 -73.21785 34862 ft 499 kts 348°
2026-05-01 07:43 42.37911 -73.23562 34877 ft 500 kts 348°
2026-05-01 07:44 42.51810 -73.25441 34875 ft 506 kts 359°
2026-05-01 07:45 42.58825 -73.23984 34892 ft 513 kts 13°
2026-05-01 07:45 42.65449 -73.20295 34896 ft 518 kts 27°
2026-05-01 07:46 42.71476 -73.14972 34898 ft 520 kts 33°
2026-05-01 07:47 42.80431 -73.06590 34876 ft 520 kts 33°
2026-05-01 07:47 42.86410 -73.01027 34871 ft 520 kts 33°
2026-05-01 07:48 42.95380 -72.92694 34870 ft 520 kts 33°
2026-05-01 07:48 43.01333 -72.87155 34874 ft 521 kts 33°
2026-05-01 07:49 43.10319 -72.78767 34879 ft 521 kts 33°
2026-05-01 07:50 43.16308 -72.73165 34886 ft 521 kts 33°
2026-05-01 07:50 43.25282 -72.64737 34886 ft 521 kts 33°
2026-05-01 07:51 43.31261 -72.59110 34865 ft 520 kts 34°
2026-05-01 07:52 43.40155 -72.50709 34886 ft 518 kts 34°
2026-05-01 07:52 43.46091 -72.45080 34886 ft 518 kts 34°
2026-05-01 07:53 43.54995 -72.36618 34882 ft 518 kts 34°
2026-05-01 07:53 43.60904 -72.30985 34886 ft 518 kts 34°
2026-05-01 07:55 43.75736 -72.16786 34875 ft 518 kts 35°
2026-05-01 07:56 43.90529 -72.02539 34872 ft 519 kts 35°
2026-05-01 07:57 43.99430 -71.93925 34869 ft 519 kts 36°
2026-05-01 07:58 44.11263 -71.82416 34868 ft 519 kts 36°
2026-05-01 07:59 44.22101 -71.71830 34872 ft 519 kts 36°
2026-05-01 08:00 44.39828 -71.54408 34863 ft 519 kts 36°
2026-05-01 08:01 44.51581 -71.42787 34861 ft 518 kts 37°
2026-05-01 08:02 44.60398 -71.34025 34853 ft 517 kts 37°
2026-05-01 08:03 44.69214 -71.25236 34853 ft 517 kts 37°
2026-05-01 08:03 44.77964 -71.16429 34838 ft 516 kts 39°
2026-05-01 08:04 44.88313 -71.02531 34830 ft 511 kts 53°
2026-05-01 08:05 44.94744 -70.90650 34824 ft 509 kts 56°
2026-05-01 08:06 45.01121 -70.78619 34817 ft 509 kts 57°
2026-05-01 08:07 45.09623 -70.62571 34813 ft 509 kts 57°
2026-05-01 08:08 45.15962 -70.50560 34798 ft 509 kts 57°
2026-05-01 08:09 45.24428 -70.34441 34774 ft 509 kts 57°
2026-05-01 08:09 45.28648 -70.26379 34776 ft 507 kts 57°
2026-05-01 08:10 45.37013 -70.10313 34789 ft 507 kts 57°
2026-05-01 08:11 45.45383 -69.94151 34782 ft 505 kts 57°
2026-05-01 08:12 45.51629 -69.82028 34779 ft 505 kts 57°
2026-05-01 08:13 45.57839 -69.69930 34770 ft 505 kts 58°
2026-05-01 08:13 45.64058 -69.57755 34769 ft 504 kts 58°
2026-05-01 08:14 45.68189 -69.49637 34774 ft 504 kts 58°
2026-05-01 08:14 45.72320 -69.41501 34767 ft 504 kts 58°
2026-05-01 08:15 45.78468 -69.29347 34765 ft 503 kts 58°
2026-05-01 08:16 45.82573 -69.21200 34768 ft 503 kts 58°
2026-05-01 08:16 45.86675 -69.13036 34765 ft 503 kts 59°
2026-05-01 08:17 45.90766 -69.04874 34767 ft 502 kts 59°
2026-05-01 08:17 45.94818 -68.96763 34746 ft 502 kts 59°
2026-05-01 08:18 45.98887 -68.88592 34755 ft 502 kts 59°
2026-05-01 08:19 46.07002 -68.72236 34759 ft 500 kts 59°
2026-05-01 08:19 46.11044 -68.64050 34756 ft 500 kts 59°
2026-05-01 08:20 46.15049 -68.55915 34754 ft 500 kts 59°
2026-05-01 08:20 46.19080 -68.47709 34757 ft 499 kts 59°
2026-05-01 08:21 46.23091 -68.39516 34762 ft 499 kts 59°
2026-05-01 08:21 46.27099 -68.31301 34736 ft 499 kts 59°
2026-05-01 08:22 46.31100 -68.23079 34752 ft 499 kts 59°
2026-05-01 08:22 46.35073 -68.14895 34748 ft 498 kts 60°
2026-05-01 08:23 46.39056 -68.06663 34754 ft 498 kts 60°
2026-05-01 08:23 46.43033 -67.98420 34758 ft 498 kts 60°
2026-05-01 08:24 46.47005 -67.90161 34758 ft 498 kts 60°
2026-05-01 08:24 46.50969 -67.81898 34757 ft 498 kts 60°
2026-05-01 08:25 46.54904 -67.73669 34761 ft 498 kts 60°
2026-05-01 08:25 46.58857 -67.65376 34761 ft 498 kts 60°
2026-05-01 08:26 46.62806 -67.57070 34754 ft 498 kts 60°
2026-05-01 08:26 46.66751 -67.48744 34763 ft 498 kts 60°
2026-05-01 08:27 46.70685 -67.40419 34771 ft 498 kts 60°
2026-05-01 08:27 46.74614 -67.32079 34770 ft 498 kts 60°
2026-05-01 08:28 46.78510 -67.23786 34771 ft 498 kts 60°
2026-05-01 08:28 46.82424 -67.15424 34777 ft 498 kts 60°
2026-05-01 08:29 46.86510 -67.07198 34779 ft 502 kts 56°
2026-05-01 08:29 46.91210 -66.99593 34796 ft 506 kts 49°
2026-05-01 08:30 46.96362 -66.92500 34782 ft 509 kts 47°
2026-05-01 08:30 47.01571 -66.85445 34799 ft 510 kts 47°
2026-05-01 08:31 47.06775 -66.78355 34775 ft 510 kts 47°
2026-05-01 08:31 47.11955 -66.71256 34801 ft 512 kts 47°
2026-05-01 08:32 47.17183 -66.64063 34811 ft 515 kts 47°
2026-05-01 08:32 47.22415 -66.56851 34826 ft 515 kts 47°
2026-05-01 08:33 47.27650 -66.49613 34839 ft 515 kts 47°
2026-05-01 08:33 47.32848 -66.42398 34846 ft 514 kts 47°
2026-05-01 08:34 47.38067 -66.35142 34843 ft 514 kts 47°
2026-05-01 08:34 47.43238 -66.27929 34854 ft 514 kts 47°
2026-05-01 08:35 47.48435 -66.20655 34858 ft 514 kts 47°
2026-05-01 08:35 47.53632 -66.13363 34878 ft 514 kts 47°
2026-05-01 08:36 47.58823 -66.06062 34899 ft 514 kts 47°
2026-05-01 08:36 47.64008 -65.98745 34881 ft 514 kts 47°
2026-05-01 08:37 47.69204 -65.91387 34901 ft 516 kts 47°
2026-05-01 08:37 47.74409 -65.84002 34885 ft 516 kts 47°
2026-05-01 08:38 47.79566 -65.76664 34888 ft 516 kts 47°
2026-05-01 08:38 47.84757 -65.69246 34898 ft 516 kts 46°
2026-05-01 08:39 47.89949 -65.61817 34905 ft 516 kts 46°
2026-05-01 08:39 47.95136 -65.54369 34908 ft 516 kts 46°
2026-05-01 08:40 48.02864 -65.43225 34926 ft 516 kts 46°
2026-05-01 08:40 48.08041 -65.35741 34930 ft 516 kts 46°
2026-05-01 08:41 48.13201 -65.28258 34944 ft 516 kts 46°
2026-05-01 08:41 48.18348 -65.20763 34939 ft 514 kts 46°
2026-05-01 08:42 48.23479 -65.13277 34956 ft 514 kts 46°
2026-05-01 08:42 48.28607 -65.05773 34956 ft 514 kts 46°
2026-05-01 08:43 48.33693 -64.98308 34973 ft 514 kts 46°
2026-05-01 08:43 48.38816 -64.90765 34982 ft 514 kts 46°
2026-05-01 08:44 48.43938 -64.83200 34981 ft 514 kts 46°
2026-05-01 08:44 48.49007 -64.75693 34981 ft 514 kts 46°
2026-05-01 08:45 48.54112 -64.68108 34994 ft 513 kts 46°
2026-05-01 08:45 48.59199 -64.60528 35002 ft 513 kts 46°
2026-05-01 08:46 48.63427 -64.54211 35005 ft 513 kts 47°
2026-05-01 08:46 48.68507 -64.46599 35003 ft 513 kts 47°
2026-05-01 08:47 48.73569 -64.38992 35004 ft 512 kts 47°
2026-05-01 08:47 48.78621 -64.31377 35007 ft 512 kts 47°
2026-05-01 08:48 48.83667 -64.23750 34990 ft 512 kts 47°
2026-05-01 08:48 48.88684 -64.16131 35002 ft 506 kts 46°
2026-05-01 08:49 48.93657 -64.08574 35026 ft 504 kts 46°
2026-05-01 08:49 48.98615 -64.01012 35013 ft 504 kts 46°
2026-05-01 08:50 49.03537 -63.93483 35007 ft 504 kts 47°
2026-05-01 08:50 49.08463 -63.85929 35029 ft 500 kts 47°
2026-05-01 08:51 49.13369 -63.78376 35033 ft 499 kts 47°
2026-05-01 08:51 49.18256 -63.70828 35039 ft 499 kts 47°
2026-05-01 08:52 49.23150 -63.63253 35042 ft 500 kts 47°
2026-05-01 08:52 49.28040 -63.55658 35041 ft 500 kts 47°
2026-05-01 08:53 49.32923 -63.48050 35053 ft 500 kts 47°
2026-05-01 08:53 49.37804 -63.40424 35066 ft 500 kts 47°
2026-05-01 08:54 49.42642 -63.32848 35072 ft 499 kts 48°
2026-05-01 08:54 49.47498 -63.25213 35074 ft 498 kts 48°
2026-05-01 08:55 49.52347 -63.17567 35086 ft 498 kts 48°
2026-05-01 08:55 49.57187 -63.09912 35088 ft 498 kts 48°
2026-05-01 08:56 49.62019 -63.02249 35091 ft 498 kts 48°
2026-05-01 08:56 49.66850 -62.94561 35099 ft 498 kts 48°
2026-05-01 08:57 49.71644 -62.86910 35108 ft 498 kts 48°
2026-05-01 08:57 49.76462 -62.79197 35093 ft 499 kts 48°
2026-05-01 08:58 49.81290 -62.71444 35109 ft 500 kts 48°
2026-05-01 08:58 49.86120 -62.63667 35122 ft 500 kts 48°
2026-05-01 08:59 49.90951 -62.55863 35123 ft 500 kts 49°
2026-05-01 08:59 49.95740 -62.48097 35125 ft 500 kts 48°
2026-05-01 09:00 50.00557 -62.40271 35135 ft 501 kts 48°
2026-05-01 09:00 50.05370 -62.32425 35137 ft 501 kts 48°
2026-05-01 09:01 50.10177 -62.24564 35141 ft 501 kts 49°
2026-05-01 09:01 50.14985 -62.16676 35143 ft 501 kts 49°
2026-05-01 09:02 50.19782 -62.08782 35146 ft 500 kts 49°
2026-05-01 09:02 50.24538 -62.00930 35146 ft 500 kts 49°
2026-05-01 09:03 50.29322 -61.93003 35147 ft 500 kts 49°
2026-05-01 09:03 50.34105 -61.85056 35152 ft 500 kts 49°
2026-05-01 09:04 50.38886 -61.77092 35156 ft 500 kts 49°
2026-05-01 09:04 50.43655 -61.69121 35159 ft 500 kts 49°
2026-05-01 09:05 50.48383 -61.61185 35162 ft 500 kts 48°
2026-05-01 09:05 50.53139 -61.53185 35171 ft 500 kts 49°
2026-05-01 09:06 50.57894 -61.45163 35183 ft 500 kts 49°
2026-05-01 09:06 50.62642 -61.37126 35183 ft 500 kts 49°
2026-05-01 09:07 50.67353 -61.29111 35178 ft 500 kts 48°
2026-05-01 09:07 50.72089 -61.21047 35188 ft 500 kts 48°
2026-05-01 09:08 50.76815 -61.12975 35191 ft 500 kts 48°
2026-05-01 09:08 50.81537 -61.04880 35191 ft 500 kts 48°
2026-05-01 09:09 50.86212 -60.96830 35204 ft 499 kts 48°
2026-05-01 09:09 50.90914 -60.88719 35205 ft 499 kts 48°
2026-05-01 09:10 50.95617 -60.80580 35212 ft 499 kts 48°
2026-05-01 09:10 51.00317 -60.72415 35218 ft 499 kts 48°
2026-05-01 09:11 51.04997 -60.64256 35218 ft 499 kts 48°
2026-05-01 09:11 51.09641 -60.56141 35224 ft 499 kts 48°
2026-05-01 09:12 51.14310 -60.47953 35228 ft 499 kts 48°
2026-05-01 09:12 51.18968 -60.39758 35230 ft 498 kts 48°
2026-05-01 09:13 51.23624 -60.31539 35238 ft 498 kts 48°
2026-05-01 09:13 51.28273 -60.23304 35242 ft 498 kts 48°
2026-05-01 09:14 51.32916 -60.15054 35241 ft 498 kts 48°
2026-05-01 09:14 51.37529 -60.06838 35246 ft 498 kts 49°
2026-05-01 09:15 51.42158 -59.98558 35244 ft 498 kts 49°
2026-05-01 09:15 51.46770 -59.90279 35251 ft 498 kts 49°
2026-05-01 09:16 51.51385 -59.81971 35251 ft 498 kts 49°
2026-05-01 09:17 51.58294 -59.69491 35246 ft 496 kts 50°
2026-05-01 09:17 51.65134 -59.57056 35256 ft 496 kts 50°
2026-05-01 09:18 51.72002 -59.44516 35257 ft 496 kts 51°
2026-05-01 09:19 51.78854 -59.31949 35265 ft 496 kts 51°
2026-05-01 09:20 51.85684 -59.19344 35265 ft 496 kts 51°
2026-05-01 09:21 51.94740 -59.02544 35270 ft 496 kts 51°
2026-05-01 09:21 52.01536 -58.89865 35267 ft 496 kts 51°
2026-05-01 09:22 52.10597 -58.72873 35417 ft 500 kts 52°
2026-05-01 09:23 52.12866 -58.68593 35766 ft 498 kts 52°
2026-05-01 09:23 52.17378 -58.60059 36268 ft 496 kts 52°
2026-05-01 09:24 52.24123 -58.47257 36277 ft 495 kts 52°
2026-05-01 09:25 52.33073 -58.30177 36282 ft 495 kts 52°
2026-05-01 09:26 52.39803 -58.17249 36277 ft 495 kts 52°
2026-05-01 09:26 52.46500 -58.04329 36279 ft 496 kts 53°
2026-05-01 09:27 52.53191 -57.91342 36286 ft 496 kts 53°
2026-05-01 09:28 52.57614 -57.82721 36287 ft 496 kts 53°
2026-05-01 09:28 52.62060 -57.74028 36276 ft 496 kts 53°
2026-05-01 09:29 52.68727 -57.60935 36289 ft 496 kts 53°
2026-05-01 09:30 52.74624 -57.49297 36291 ft 496 kts 53°
2026-05-01 09:30 52.81973 -57.34715 36279 ft 495 kts 53°
2026-05-01 09:31 52.85638 -57.27414 36281 ft 495 kts 53°
2026-05-01 09:32 52.92240 -57.14207 36277 ft 495 kts 54°
2026-05-01 09:32 52.98798 -57.01014 36279 ft 495 kts 53°
2026-05-01 09:33 53.03172 -56.92181 36280 ft 494 kts 53°
2026-05-01 09:34 53.09517 -56.78661 36277 ft 492 kts 59°
2026-05-01 09:34 53.14648 -56.63929 36264 ft 489 kts 65°
2026-05-01 09:35 53.19429 -56.48876 36268 ft 488 kts 65°
2026-05-01 09:36 53.22585 -56.38910 36268 ft 488 kts 65°
2026-05-01 09:36 53.25755 -56.28890 36267 ft 487 kts 65°
2026-05-01 09:37 53.28921 -56.18843 36261 ft 487 kts 65°
2026-05-01 09:37 53.33647 -56.03769 36266 ft 486 kts 65°
2026-05-01 09:38 53.38335 -55.88729 36271 ft 486 kts 65°
2026-05-01 09:39 53.43019 -55.73603 36267 ft 486 kts 65°
2026-05-01 09:39 53.46131 -55.63493 36272 ft 486 kts 65°
2026-05-01 09:40 53.50757 -55.48401 36284 ft 486 kts 65°
2026-05-01 09:41 53.53842 -55.38280 36284 ft 486 kts 65°
2026-05-01 09:41 53.58446 -55.23089 36286 ft 484 kts 65°
2026-05-01 09:42 53.61501 -55.12963 36288 ft 484 kts 65°
2026-05-01 09:43 53.67588 -54.92653 36297 ft 484 kts 65°
2026-05-01 09:43 53.70618 -54.82479 36297 ft 484 kts 65°
2026-05-01 09:44 53.75121 -54.67268 36298 ft 484 kts 65°
2026-05-01 09:45 53.78127 -54.57067 36309 ft 484 kts 65°
2026-05-01 09:45 53.82622 -54.41730 36310 ft 484 kts 66°
2026-05-01 09:46 53.85604 -54.31495 36307 ft 484 kts 66°
2026-05-01 09:46 53.88579 -54.21239 36312 ft 485 kts 66°
2026-05-01 09:47 53.91527 -54.11035 36318 ft 484 kts 66°
2026-05-01 09:47 53.94483 -54.00760 36323 ft 483 kts 66°
2026-05-01 09:48 53.97432 -53.90464 36323 ft 483 kts 66°
2026-05-01 09:48 54.00367 -53.80169 36331 ft 484 kts 66°
2026-05-01 09:49 54.03299 -53.69837 36327 ft 484 kts 66°
2026-05-01 09:49 54.06223 -53.59490 36330 ft 484 kts 66°
2026-05-01 09:50 54.09120 -53.49197 36342 ft 484 kts 66°
2026-05-01 09:50 54.12029 -53.38813 36341 ft 484 kts 66°
2026-05-01 09:51 54.14928 -53.28415 36341 ft 485 kts 66°
2026-05-01 09:51 54.17825 -53.17982 36350 ft 485 kts 66°
2026-05-01 09:52 54.20691 -53.07611 36346 ft 485 kts 66°
2026-05-01 09:52 54.23564 -52.97168 36345 ft 484 kts 66°
2026-05-01 09:53 54.26428 -52.86711 36347 ft 484 kts 67°
2026-05-01 09:53 54.29288 -52.76221 36356 ft 486 kts 66°
2026-05-01 09:54 54.32140 -52.65713 36364 ft 486 kts 66°
2026-05-01 09:54 54.34984 -52.55184 36359 ft 486 kts 67°
2026-05-01 09:55 54.37804 -52.44689 36364 ft 486 kts 67°
2026-05-01 09:55 54.40634 -52.34119 36357 ft 486 kts 67°
2026-05-01 09:56 54.43453 -52.23524 36373 ft 487 kts 67°
2026-05-01 09:56 54.46258 -52.12960 36370 ft 487 kts 67°
2026-05-01 09:57 54.49065 -52.02330 36377 ft 487 kts 67°
2026-05-01 09:57 54.51848 -51.91734 36375 ft 487 kts 67°
2026-05-01 09:58 54.54634 -51.81071 36373 ft 487 kts 67°
2026-05-01 09:58 54.57412 -51.70387 36382 ft 488 kts 68°
2026-05-01 09:59 54.60193 -51.59646 36381 ft 488 kts 68°
2026-05-01 09:59 54.62958 -51.48921 36381 ft 488 kts 68°
2026-05-01 10:00 54.65698 -51.38240 36384 ft 488 kts 68°
2026-05-01 10:00 54.68442 -51.27486 36391 ft 489 kts 68°
2026-05-01 10:01 54.71186 -51.16684 36392 ft 489 kts 68°
2026-05-01 10:01 54.73919 -51.05878 36391 ft 489 kts 68°
2026-05-01 10:02 54.76623 -50.95133 36396 ft 489 kts 68°
2026-05-01 10:02 54.79338 -50.84287 36398 ft 489 kts 68°
2026-05-01 10:03 54.82022 -50.73511 36399 ft 489 kts 68°
2026-05-01 10:03 54.84719 -50.62635 36383 ft 489 kts 68°
2026-05-01 10:04 54.87408 -50.51740 36395 ft 491 kts 68°
2026-05-01 10:04 54.90091 -50.40810 36399 ft 491 kts 68°
2026-05-01 10:05 54.92767 -50.29858 36410 ft 491 kts 68°
2026-05-01 10:05 54.95432 -50.18891 36411 ft 491 kts 68°
2026-05-01 10:06 54.97709 -50.07797 36404 ft 488 kts 79°
2026-05-01 10:06 54.99048 -49.96190 36408 ft 488 kts 81°
2026-05-01 10:07 55.00424 -49.84590 36413 ft 489 kts 78°
2026-05-01 10:07 55.02056 -49.73044 36413 ft 489 kts 78°
2026-05-01 10:08 55.04517 -49.55733 36408 ft 490 kts 78°
2026-05-01 10:09 55.06131 -49.44226 36418 ft 491 kts 78°
2026-05-01 10:09 55.07741 -49.32618 36421 ft 491 kts 78°
2026-05-01 10:10 55.09342 -49.20988 36423 ft 491 kts 78°
2026-05-01 10:10 55.11717 -49.03551 36425 ft 491 kts 78°
2026-05-01 10:11 55.13281 -48.91958 36426 ft 493 kts 78°
2026-05-01 10:11 55.14846 -48.80270 36426 ft 493 kts 78°
2026-05-01 10:12 55.16137 -48.70558 36432 ft 493 kts 78°
2026-05-01 10:13 55.18704 -48.51053 36428 ft 491 kts 78°
2026-05-01 10:13 55.20222 -48.39389 36433 ft 491 kts 79°
2026-05-01 10:14 55.22488 -48.21803 36437 ft 493 kts 79°
2026-05-01 10:14 55.23985 -48.10062 36437 ft 493 kts 79°
2026-05-01 10:15 55.25464 -47.98372 36442 ft 493 kts 79°
2026-05-01 10:15 55.26940 -47.86603 36445 ft 493 kts 79°
2026-05-01 10:16 55.28399 -47.74869 36442 ft 494 kts 79°
2026-05-01 10:17 55.30585 -47.57108 36434 ft 494 kts 79°
2026-05-01 10:17 55.32735 -47.39416 36442 ft 492 kts 79°
2026-05-01 10:18 55.34856 -47.21719 36445 ft 492 kts 79°
2026-05-01 10:19 55.36021 -47.11899 36439 ft 494 kts 79°
2026-05-01 10:19 55.37646 -46.98082 36440 ft 496 kts 79°
2026-05-01 10:20 55.39494 -46.82201 36442 ft 496 kts 80°
2026-05-01 10:20 55.40865 -46.70285 36442 ft 496 kts 80°
2026-05-01 10:21 55.42900 -46.52404 36445 ft 496 kts 80°
2026-05-01 10:22 55.44914 -46.34440 36445 ft 499 kts 80°
2026-05-01 10:23 55.46903 -46.16468 36445 ft 499 kts 80°
2026-05-01 10:23 55.48875 -45.98389 36448 ft 499 kts 80°
2026-05-01 10:24 55.51453 -45.74316 36449 ft 502 kts 81°
2026-05-01 10:25 55.54004 -45.50069 36446 ft 499 kts 81°
2026-05-01 10:26 55.55256 -45.37975 36448 ft 499 kts 81°
2026-05-01 10:27 55.57715 -45.13825 36448 ft 502 kts 81°
2026-05-01 10:28 55.59549 -44.95522 36447 ft 503 kts 81°
2026-05-01 10:28 55.61348 -44.77263 36450 ft 503 kts 81°
2026-05-01 10:29 55.63128 -44.58914 36441 ft 502 kts 81°
2026-05-01 10:30 55.65455 -44.34433 36453 ft 504 kts 82°
2026-05-01 10:31 55.67733 -44.09936 36448 ft 504 kts 82°
2026-05-01 10:32 55.69415 -43.91486 36452 ft 504 kts 82°
2026-05-01 10:33 55.71606 -43.66966 36447 ft 504 kts 82°
2026-05-01 10:34 55.73217 -43.48565 36449 ft 500 kts 82°
2026-05-01 10:34 55.74270 -43.36336 36450 ft 500 kts 82°
2026-05-01 10:35 55.75821 -43.18037 36450 ft 503 kts 82°
2026-05-01 10:35 55.76852 -43.05721 36450 ft 503 kts 83°
2026-05-01 10:36 55.78374 -42.87231 36448 ft 503 kts 83°
2026-05-01 10:37 55.79373 -42.74900 36451 ft 503 kts 83°
2026-05-01 10:37 55.80840 -42.56483 36446 ft 503 kts 83°
2026-05-01 10:38 55.81810 -42.44100 36448 ft 505 kts 83°
2026-05-01 10:38 55.82770 -42.31696 36448 ft 505 kts 83°
2026-05-01 10:39 55.83716 -42.19305 36448 ft 505 kts 83°
2026-05-01 10:39 55.84645 -42.06963 36448 ft 505 kts 83°
2026-05-01 10:40 55.85567 -41.94549 36455 ft 505 kts 83°
2026-05-01 10:40 55.86477 -41.82073 36447 ft 509 kts 83°
2026-05-01 10:41 55.87382 -41.69548 36448 ft 509 kts 83°
2026-05-01 10:42 55.88716 -41.50746 36441 ft 507 kts 84°
2026-05-01 10:42 55.89579 -41.38337 36444 ft 506 kts 84°
2026-05-01 10:43 55.90434 -41.25837 36449 ft 507 kts 84°
2026-05-01 10:43 55.91279 -41.13277 36444 ft 510 kts 84°
2026-05-01 10:44 55.92110 -41.00772 36445 ft 510 kts 84°
2026-05-01 10:44 55.92934 -40.88183 36440 ft 510 kts 84°
2026-05-01 10:45 55.93746 -40.75562 36445 ft 510 kts 84°
2026-05-01 10:45 55.94543 -40.62962 36444 ft 510 kts 84°
2026-05-01 10:46 55.95328 -40.50307 36436 ft 513 kts 84°
2026-05-01 10:46 55.96099 -40.37719 36438 ft 512 kts 84°
2026-05-01 10:47 55.96863 -40.25035 36435 ft 512 kts 84°
2026-05-01 10:47 55.97613 -40.12356 36436 ft 512 kts 84°
2026-05-01 10:48 55.98348 -39.99656 36436 ft 512 kts 85°
2026-05-01 10:48 55.98910 -39.86932 36444 ft 515 kts 86°
2026-05-01 10:49 55.99382 -39.74119 36438 ft 516 kts 86°
2026-05-01 10:49 55.99853 -39.61296 36438 ft 516 kts 86°
2026-05-01 10:50 56.00316 -39.48583 36434 ft 514 kts 86°
2026-05-01 10:50 56.00773 -39.35802 36440 ft 513 kts 87°
2026-05-01 10:51 56.01216 -39.23038 36445 ft 514 kts 87°
2026-05-01 10:51 56.01649 -39.10176 36438 ft 518 kts 87°
2026-05-01 10:52 56.02071 -38.97284 36431 ft 518 kts 87°
2026-05-01 10:52 56.02478 -38.84469 36431 ft 518 kts 87°
2026-05-01 10:53 56.02873 -38.71565 36436 ft 518 kts 87°
2026-05-01 10:53 56.03254 -38.58662 36435 ft 518 kts 87°
2026-05-01 10:54 56.03619 -38.45741 36432 ft 518 kts 87°
2026-05-01 10:54 56.03974 -38.32882 36430 ft 519 kts 87°
2026-05-01 10:55 56.04317 -38.19955 36436 ft 519 kts 87°
2026-05-01 10:55 56.04645 -38.07045 36430 ft 519 kts 87°
2026-05-01 10:56 56.04957 -37.94215 36428 ft 519 kts 88°
2026-05-01 10:56 56.05257 -37.81278 36431 ft 521 kts 88°
2026-05-01 10:57 56.05546 -37.68253 36428 ft 523 kts 88°
2026-05-01 10:57 56.05821 -37.55218 36412 ft 522 kts 88°
2026-05-01 10:58 56.06079 -37.42312 36420 ft 520 kts 88°
2026-05-01 10:58 56.06327 -37.29335 36422 ft 520 kts 88°
2026-05-01 10:59 56.06561 -37.16374 36422 ft 520 kts 88°
2026-05-01 10:59 56.06781 -37.03397 36418 ft 520 kts 88°
2026-05-01 11:00 56.06988 -36.90437 36418 ft 520 kts 88°
2026-05-01 11:00 56.07181 -36.77451 36422 ft 520 kts 88°
2026-05-01 11:01 56.07359 -36.64566 36423 ft 520 kts 88°
2026-05-01 11:01 56.07524 -36.51592 36428 ft 520 kts 88°
2026-05-01 11:02 56.07675 -36.38591 36424 ft 523 kts 88°
2026-05-01 11:02 56.07815 -36.25543 36422 ft 523 kts 88°
2026-05-01 11:03 56.07941 -36.12486 36416 ft 523 kts 89°
2026-05-01 11:03 56.08053 -35.99494 36421 ft 523 kts 89°
2026-05-01 11:04 56.08151 -35.86416 36416 ft 523 kts 89°
2026-05-01 11:04 56.08234 -35.73354 36423 ft 525 kts 89°
2026-05-01 11:05 56.08304 -35.60245 36400 ft 526 kts 89°
2026-05-01 11:05 56.08360 -35.47224 36413 ft 524 kts 89°
2026-05-01 11:06 56.08404 -35.34159 36407 ft 524 kts 89°
2026-05-01 11:06 56.08434 -35.21083 36412 ft 524 kts 89°
2026-05-01 11:07 56.08450 -35.01464 36412 ft 525 kts 89°
2026-05-01 11:07 56.08446 -34.88351 36408 ft 525 kts 89°
2026-05-01 11:08 56.08428 -34.75322 36407 ft 525 kts 89°
2026-05-01 11:09 56.08380 -34.57889 36396 ft 524 kts 89°
2026-05-01 11:09 56.08328 -34.44840 36397 ft 522 kts 89°
2026-05-01 11:10 56.08224 -34.25254 36404 ft 524 kts 89°
2026-05-01 11:10 56.08139 -34.12185 36402 ft 524 kts 89°
2026-05-01 11:11 56.08040 -33.99102 36400 ft 524 kts 90°
2026-05-01 11:11 56.07928 -33.86046 36399 ft 524 kts 90°
2026-05-01 11:12 56.07802 -33.72980 36403 ft 524 kts 90°
2026-05-01 11:12 56.07659 -33.59979 36390 ft 524 kts 90°
2026-05-01 11:13 56.07504 -33.46931 36398 ft 523 kts 90°
2026-05-01 11:13 56.07338 -33.33897 36396 ft 522 kts 90°
2026-05-01 11:14 56.07157 -33.20862 36396 ft 523 kts 90°
2026-05-01 11:14 56.06961 -33.07818 36394 ft 523 kts 90°
2026-05-01 11:15 56.06751 -32.94858 36403 ft 523 kts 90°
2026-05-01 11:15 56.06528 -32.81792 36395 ft 524 kts 90°
2026-05-01 11:16 56.06291 -32.68727 36392 ft 524 kts 90°
2026-05-01 11:16 56.06040 -32.55732 36380 ft 522 kts 90°
2026-05-01 11:17 56.05776 -32.42710 36393 ft 521 kts 90°
2026-05-01 11:17 56.05499 -32.29725 36403 ft 521 kts 90°
2026-05-01 11:18 56.05209 -32.16791 36387 ft 522 kts 90°
2026-05-01 11:18 56.04905 -32.03777 36387 ft 522 kts 90°
2026-05-01 11:19 56.04587 -31.90771 36383 ft 522 kts 90°
2026-05-01 11:19 56.04257 -31.77828 36382 ft 522 kts 91°
2026-05-01 11:20 56.03912 -31.64834 36372 ft 522 kts 91°
2026-05-01 11:20 56.03550 -31.51843 36390 ft 521 kts 91°
2026-05-01 11:21 56.03179 -31.38881 36379 ft 521 kts 91°
2026-05-01 11:21 56.02795 -31.25934 36379 ft 521 kts 91°
2026-05-01 11:22 56.02398 -31.13063 36383 ft 521 kts 91°
2026-05-01 11:22 56.01985 -31.00103 36379 ft 521 kts 91°
2026-05-01 11:23 56.01557 -30.87133 36381 ft 521 kts 91°
2026-05-01 11:23 56.01117 -30.74180 36379 ft 522 kts 91°
2026-05-01 11:24 56.00662 -30.61208 36369 ft 520 kts 91°
2026-05-01 11:25 55.99961 -30.41897 36376 ft 519 kts 91°
2026-05-01 11:25 55.99229 -30.22561 36373 ft 519 kts 91°
2026-05-01 11:26 55.98464 -30.03212 36368 ft 519 kts 92°
2026-05-01 11:27 55.97831 -29.90336 36373 ft 520 kts 94°
2026-05-01 11:27 55.97048 -29.77476 36369 ft 520 kts 94°
2026-05-01 11:28 55.96261 -29.64690 36366 ft 519 kts 94°
2026-05-01 11:28 55.95472 -29.51876 36369 ft 517 kts 94°
2026-05-01 11:29 55.94277 -29.32678 36370 ft 517 kts 94°
2026-05-01 11:30 55.93057 -29.13562 36363 ft 518 kts 94°
2026-05-01 11:30 55.92224 -29.00775 36369 ft 518 kts 94°
2026-05-01 11:31 55.91377 -28.87977 36362 ft 518 kts 94°
2026-05-01 11:31 55.90516 -28.75210 36360 ft 517 kts 94°
2026-05-01 11:32 55.89645 -28.62488 36354 ft 515 kts 94°
2026-05-01 11:32 55.88771 -28.49886 36358 ft 515 kts 94°
2026-05-01 11:33 55.87877 -28.37179 36347 ft 515 kts 94°
2026-05-01 11:33 55.86969 -28.24486 36350 ft 515 kts 95°
2026-05-01 11:34 55.86047 -28.11789 36359 ft 515 kts 95°
2026-05-01 11:34 55.85120 -27.99209 36359 ft 515 kts 95°
2026-05-01 11:35 55.84173 -27.86529 36347 ft 515 kts 95°
2026-05-01 11:35 55.83212 -27.73866 36333 ft 512 kts 95°
2026-05-01 11:36 55.82246 -27.61293 36337 ft 512 kts 95°
2026-05-01 11:36 55.81274 -27.48797 36332 ft 512 kts 95°
2026-05-01 11:37 55.80282 -27.36231 36343 ft 512 kts 95°
2026-05-01 11:37 55.79277 -27.23668 36331 ft 512 kts 95°
2026-05-01 11:38 55.78260 -27.11127 36325 ft 512 kts 95°
2026-05-01 11:38 55.77229 -26.98571 36322 ft 512 kts 95°
2026-05-01 11:39 55.76191 -26.86094 36334 ft 512 kts 96°
2026-05-01 11:39 55.75136 -26.73566 36331 ft 512 kts 96°
2026-05-01 11:40 55.74067 -26.61025 36319 ft 512 kts 96°
2026-05-01 11:40 55.72983 -26.48491 36316 ft 512 kts 96°
2026-05-01 11:41 55.71889 -26.35979 36319 ft 512 kts 96°
2026-05-01 11:41 55.70782 -26.23475 36319 ft 513 kts 96°
2026-05-01 11:42 55.69669 -26.11051 36313 ft 513 kts 96°
2026-05-01 11:42 55.68538 -25.98555 36313 ft 512 kts 97°
2026-05-01 11:43 55.67395 -25.86119 36305 ft 509 kts 97°
2026-05-01 11:43 55.66242 -25.73697 36307 ft 509 kts 97°
2026-05-01 11:44 55.64499 -25.55166 36306 ft 509 kts 97°
2026-05-01 11:44 55.63314 -25.42748 36305 ft 509 kts 97°
2026-05-01 11:45 55.62121 -25.30360 36308 ft 510 kts 97°
2026-05-01 11:45 55.60910 -25.17957 36303 ft 510 kts 97°
2026-05-01 11:46 55.59687 -25.05573 36297 ft 509 kts 97°
2026-05-01 11:46 55.58466 -24.93334 36299 ft 507 kts 97°
2026-05-01 11:47 55.57228 -24.81038 36294 ft 507 kts 97°
2026-05-01 11:47 55.55977 -24.68752 36308 ft 507 kts 98°
2026-05-01 11:48 55.54711 -24.56436 36284 ft 508 kts 98°
2026-05-01 11:48 55.53430 -24.44120 36291 ft 509 kts 98°
2026-05-01 11:49 55.52139 -24.31827 36295 ft 509 kts 98°
2026-05-01 11:49 55.50835 -24.19538 36288 ft 509 kts 98°
2026-05-01 11:50 55.49529 -24.07369 36284 ft 506 kts 98°
2026-05-01 11:50 55.48205 -23.95127 36294 ft 507 kts 98°
2026-05-01 11:51 55.46866 -23.82873 36289 ft 508 kts 98°
2026-05-01 11:51 55.45515 -23.70625 36283 ft 508 kts 98°
2026-05-01 11:52 55.44151 -23.58386 36284 ft 508 kts 98°
2026-05-01 11:52 55.42783 -23.46231 36280 ft 508 kts 98°
2026-05-01 11:53 55.41394 -23.34005 36280 ft 508 kts 98°
2026-05-01 11:53 55.39991 -23.21785 36275 ft 505 kts 98°
2026-05-01 11:54 55.38592 -23.09696 36280 ft 505 kts 98°
2026-05-01 11:54 55.37418 -22.99628 36280 ft 505 kts 99°
2026-05-01 11:55 55.35993 -22.87516 36280 ft 505 kts 99°
2026-05-01 11:55 55.34555 -22.75407 36283 ft 505 kts 99°
2026-05-01 11:56 55.33103 -22.63300 36286 ft 506 kts 99°
2026-05-01 11:56 55.31645 -22.51243 36278 ft 507 kts 99°
2026-05-01 11:57 55.30163 -22.39093 36276 ft 507 kts 99°
2026-05-01 11:57 55.28678 -22.27038 36277 ft 504 kts 99°
2026-05-01 11:58 55.27183 -22.14991 36278 ft 504 kts 99°
2026-05-01 11:59 55.24919 -21.96956 36285 ft 504 kts 99°
2026-05-01 11:59 55.23393 -21.84925 36271 ft 505 kts 99°
2026-05-01 12:00 55.21092 -21.66975 36273 ft 505 kts 99°
2026-05-01 12:01 55.18750 -21.48946 36270 ft 503 kts 99°
2026-05-01 12:01 55.17184 -21.37011 36269 ft 501 kts 100°
2026-05-01 12:02 55.15621 -21.25194 36265 ft 500 kts 100°
2026-05-01 12:02 55.14040 -21.13326 36277 ft 500 kts 100°
2026-05-01 12:03 55.12445 -21.01457 36256 ft 500 kts 100°
2026-05-01 12:03 55.10839 -20.89602 36259 ft 500 kts 100°
2026-05-01 12:04 55.09220 -20.77744 36268 ft 501 kts 100°
2026-05-01 12:04 55.07600 -20.65971 36266 ft 500 kts 100°
2026-05-01 12:05 55.05966 -20.54202 36263 ft 497 kts 100°
2026-05-01 12:05 55.03501 -20.36598 36261 ft 497 kts 101°
2026-05-01 12:06 55.01843 -20.24864 36255 ft 497 kts 101°
2026-05-01 12:06 55.00174 -20.13145 36255 ft 497 kts 101°
2026-05-01 12:07 54.98494 -20.01500 36269 ft 498 kts 102°
2026-05-01 12:07 54.96514 -19.89934 36255 ft 498 kts 104°
2026-05-01 12:08 54.94467 -19.78373 36262 ft 498 kts 104°
2026-05-01 12:08 54.92415 -19.66855 36250 ft 497 kts 104°
2026-05-01 12:09 54.90360 -19.55357 36251 ft 497 kts 104°
2026-05-01 12:09 54.88306 -19.43937 36246 ft 498 kts 104°
2026-05-01 12:10 54.85185 -19.26707 36251 ft 498 kts 104°
2026-05-01 12:11 54.82033 -19.09492 36238 ft 498 kts 104°
2026-05-01 12:11 54.79919 -18.98038 36244 ft 497 kts 104°
2026-05-01 12:12 54.77804 -18.86645 36232 ft 495 kts 104°
2026-05-01 12:12 54.75695 -18.75339 36232 ft 495 kts 104°
2026-05-01 12:13 54.73564 -18.63972 36236 ft 494 kts 105°
2026-05-01 12:13 54.71424 -18.52649 36230 ft 494 kts 105°
2026-05-01 12:14 54.69272 -18.41330 36225 ft 494 kts 105°
2026-05-01 12:14 54.67110 -18.30026 36224 ft 494 kts 105°
2026-05-01 12:15 54.64953 -18.18809 36223 ft 494 kts 105°
2026-05-01 12:15 54.62770 -18.07525 36221 ft 494 kts 105°
2026-05-01 12:16 54.60584 -17.96286 36225 ft 491 kts 106°
2026-05-01 12:16 54.58397 -17.85115 36221 ft 491 kts 106°
2026-05-01 12:17 54.56199 -17.73953 36218 ft 491 kts 106°
2026-05-01 12:17 54.53999 -17.62842 36218 ft 491 kts 106°
2026-05-01 12:18 54.51780 -17.51697 36218 ft 491 kts 106°
2026-05-01 12:18 54.49545 -17.40552 36220 ft 490 kts 106°
2026-05-01 12:19 54.47322 -17.29498 36212 ft 487 kts 106°
2026-05-01 12:19 54.45094 -17.18494 36209 ft 486 kts 106°
2026-05-01 12:20 54.42867 -17.07561 36200 ft 487 kts 107°
2026-05-01 12:20 54.40619 -16.96581 36201 ft 487 kts 107°
2026-05-01 12:21 54.38358 -16.85605 36193 ft 487 kts 107°
2026-05-01 12:21 54.36090 -16.74647 36195 ft 487 kts 107°
2026-05-01 12:22 54.33821 -16.63770 36197 ft 486 kts 106°
2026-05-01 12:22 54.31537 -16.52847 36193 ft 486 kts 107°
2026-05-01 12:23 54.29243 -16.41938 36192 ft 486 kts 107°
2026-05-01 12:23 54.26938 -16.31039 36190 ft 486 kts 107°
2026-05-01 12:24 54.24624 -16.20162 36189 ft 486 kts 107°
2026-05-01 12:24 54.22299 -16.09279 36179 ft 486 kts 107°
2026-05-01 12:25 54.18808 -15.93056 36332 ft 489 kts 107°
2026-05-01 12:25 54.17803 -15.87506 36696 ft 485 kts 102°
2026-05-01 12:26 54.16973 -15.81932 37085 ft 483 kts 101°
2026-05-01 12:26 54.14423 -15.65247 37179 ft 484 kts 106°
2026-05-01 12:27 54.10933 -15.49097 37178 ft 485 kts 108°
2026-05-01 12:28 54.07371 -15.32992 37144 ft 483 kts 108°
2026-05-01 12:29 54.03798 -15.16925 37152 ft 482 kts 109°
2026-05-01 12:29 54.00714 -15.00689 37140 ft 478 kts 97°
2026-05-01 12:30 53.99902 -14.83824 37138 ft 475 kts 90°
2026-05-01 12:31 53.99976 -14.72653 37129 ft 474 kts 88°
2026-05-01 12:31 54.00033 -14.61419 37121 ft 473 kts 89°
2026-05-01 12:32 54.00060 -14.50189 37128 ft 474 kts 89°
2026-05-01 12:32 54.00064 -14.33339 37114 ft 473 kts 90°
2026-05-01 12:33 54.00057 -14.22124 37098 ft 473 kts 90°
2026-05-01 12:33 54.00025 -14.10969 37097 ft 473 kts 90°
2026-05-01 12:34 53.99725 -13.99786 37091 ft 473 kts 96°
2026-05-01 12:34 53.98753 -13.88710 37090 ft 473 kts 100°
2026-05-01 12:35 53.97548 -13.77680 37083 ft 472 kts 101°
2026-05-01 12:35 53.96353 -13.66787 37080 ft 471 kts 101°
2026-05-01 12:36 53.95137 -13.55848 37066 ft 471 kts 101°
2026-05-01 12:36 53.93908 -13.44881 37071 ft 471 kts 101°
2026-05-01 12:37 53.92670 -13.33941 37071 ft 472 kts 101°
2026-05-01 12:37 53.91423 -13.23006 37055 ft 471 kts 101°
2026-05-01 12:38 53.90171 -13.12057 37057 ft 472 kts 102°
2026-05-01 12:38 53.88893 -13.01106 37051 ft 473 kts 102°
2026-05-01 12:39 53.87610 -12.90154 37048 ft 473 kts 102°
2026-05-01 12:39 53.86329 -12.79266 37048 ft 472 kts 103°
2026-05-01 12:40 53.85026 -12.68326 37048 ft 473 kts 103°
2026-05-01 12:40 53.83716 -12.57410 37044 ft 471 kts 103°
2026-05-01 12:41 53.82401 -12.46554 37044 ft 473 kts 103°
2026-05-01 12:41 53.81067 -12.35627 37044 ft 473 kts 103°
2026-05-01 12:42 53.79955 -12.26568 37045 ft 473 kts 103°
2026-05-01 12:42 53.78601 -12.15626 37047 ft 473 kts 103°
2026-05-01 12:43 53.77243 -12.04710 37036 ft 473 kts 104°
2026-05-01 12:43 53.75887 -11.93900 37052 ft 472 kts 104°
2026-05-01 12:44 53.74506 -11.83013 37050 ft 472 kts 104°
2026-05-01 12:45 53.71722 -11.61293 37055 ft 472 kts 104°
2026-05-01 12:45 53.70316 -11.50447 37048 ft 472 kts 105°
2026-05-01 12:46 53.68905 -11.39595 37063 ft 473 kts 105°
2026-05-01 12:46 53.67481 -11.28797 37062 ft 473 kts 105°
2026-05-01 12:47 53.66039 -11.17934 37066 ft 473 kts 105°
2026-05-01 12:47 53.64588 -11.07077 37068 ft 473 kts 105°
2026-05-01 12:48 53.63131 -10.96246 37068 ft 473 kts 105°
2026-05-01 12:48 53.61663 -10.85414 37076 ft 473 kts 105°
2026-05-01 12:49 53.60194 -10.74663 37080 ft 473 kts 105°
2026-05-01 12:49 53.58707 -10.63847 37070 ft 473 kts 106°
2026-05-01 12:50 53.57209 -10.53034 37089 ft 473 kts 106°
2026-05-01 12:50 53.55702 -10.42234 37078 ft 473 kts 106°
2026-05-01 12:51 53.54194 -10.31467 37075 ft 471 kts 107°
2026-05-01 12:52 53.51921 -10.15456 37084 ft 471 kts 107°
2026-05-01 12:52 53.49615 -9.99376 37085 ft 471 kts 107°
2026-05-01 12:53 53.47288 -9.83305 37061 ft 471 kts 107°
2026-05-01 12:54 53.45745 -9.72711 37077 ft 467 kts 107°
2026-05-01 12:54 53.43400 -9.56809 37079 ft 467 kts 108°
2026-05-01 12:55 53.41037 -9.40924 37079 ft 467 kts 108°
2026-05-01 12:56 53.39461 -9.30419 37079 ft 467 kts 108°
2026-05-01 12:56 53.37872 -9.19866 37061 ft 465 kts 108°
2026-05-01 12:57 53.36272 -9.09351 37071 ft 465 kts 108°
2026-05-01 12:57 53.33849 -8.93551 37075 ft 465 kts 108°
2026-05-01 12:58 53.32226 -8.83045 37071 ft 465 kts 109°
2026-05-01 12:59 53.29789 -8.67362 37066 ft 464 kts 109°
2026-05-01 12:59 53.27323 -8.51694 37074 ft 463 kts 109°
2026-05-01 13:00 53.24843 -8.36077 37084 ft 463 kts 109°
2026-05-01 13:01 53.22337 -8.20437 37064 ft 463 kts 110°
2026-05-01 13:02 53.19813 -8.04811 37080 ft 461 kts 110°
2026-05-01 13:07 53.00790 -6.91524 37096 ft 460 kts 111°
2026-05-01 13:08 52.99003 -6.81246 37099 ft 460 kts 111°
2026-05-01 13:08 52.97208 -6.70977 37099 ft 460 kts 111°
2026-05-01 13:09 52.95411 -6.60764 37105 ft 460 kts 111°
2026-05-01 13:09 52.93596 -6.50491 37095 ft 460 kts 111°
2026-05-01 13:10 52.91792 -6.40357 37105 ft 460 kts 111°
2026-05-01 13:10 52.89957 -6.30106 37100 ft 460 kts 111°
2026-05-01 13:11 52.88121 -6.19903 37123 ft 460 kts 111°
2026-05-01 13:11 52.86278 -6.09717 37115 ft 460 kts 112°
2026-05-01 13:12 52.84425 -5.99526 37122 ft 460 kts 112°
2026-05-01 13:12 52.82569 -5.89378 37126 ft 460 kts 112°
2026-05-01 13:13 52.80705 -5.79242 37139 ft 460 kts 112°
2026-05-01 13:13 52.78845 -5.69182 37140 ft 460 kts 112°
2026-05-01 13:14 52.76962 -5.59047 37148 ft 460 kts 112°
2026-05-01 13:14 52.75073 -5.48932 37147 ft 460 kts 112°
2026-05-01 13:15 52.73251 -5.38787 37162 ft 461 kts 111°
2026-05-01 13:15 52.71440 -5.28636 37162 ft 460 kts 111°
2026-05-01 13:16 52.69618 -5.18497 37159 ft 460 kts 111°
2026-05-01 13:16 52.67795 -5.08421 37162 ft 460 kts 111°
2026-05-01 13:17 52.64090 -4.88140 37163 ft 462 kts 111°
2026-05-01 13:18 52.61298 -4.72989 37164 ft 462 kts 112°
2026-05-01 13:18 52.59416 -4.62855 37164 ft 462 kts 112°
2026-05-01 13:19 52.57539 -4.52794 37164 ft 462 kts 112°
2026-05-01 13:20 52.54683 -4.37614 37167 ft 463 kts 112°
2026-05-01 13:20 52.52768 -4.27484 37169 ft 463 kts 112°
2026-05-01 13:21 52.49876 -4.12300 37173 ft 463 kts 112°
2026-05-01 13:21 52.47947 -4.02240 37172 ft 463 kts 112°
2026-05-01 13:22 52.45994 -3.92128 37157 ft 465 kts 112°
2026-05-01 13:22 52.44030 -3.81992 37167 ft 465 kts 112°
2026-05-01 13:23 52.42073 -3.71932 37166 ft 466 kts 112°
2026-05-01 13:23 52.40091 -3.61812 37168 ft 466 kts 112°
2026-05-01 13:24 52.38101 -3.51702 37163 ft 466 kts 112°
2026-05-01 13:25 52.35090 -3.36533 37155 ft 467 kts 111°
2026-05-01 13:25 52.33070 -3.26394 37167 ft 468 kts 111°
2026-05-01 13:26 52.31043 -3.16274 37154 ft 468 kts 112°
2026-05-01 13:26 52.29019 -3.06232 37155 ft 468 kts 112°
2026-05-01 13:27 52.26974 -2.96128 37123 ft 468 kts 112°
2026-05-01 13:27 52.23865 -2.80902 37141 ft 469 kts 111°
2026-05-01 13:28 52.20727 -2.65611 37148 ft 469 kts 111°
2026-05-01 13:29 52.16876 -2.47019 37147 ft 469 kts 112°
2026-05-01 13:31 52.10481 -2.16516 37152 ft 470 kts 112°
2026-05-01 13:32 52.05110 -1.91284 37132 ft 470 kts 112°
2026-05-01 13:33 51.99684 -1.66133 37134 ft 470 kts 112°
2026-05-01 13:34 51.95466 -1.46766 37132 ft 470 kts 112°
2026-05-01 13:35 51.92245 -1.32095 37128 ft 470 kts 112°
2026-05-01 13:36 51.89004 -1.17441 37128 ft 470 kts 112°
2026-05-01 13:36 51.85671 -1.02475 37127 ft 470 kts 112°
2026-05-01 13:37 51.83449 -0.92557 37123 ft 470 kts 112°
2026-05-01 13:37 51.81207 -0.82598 37136 ft 470 kts 113°
2026-05-01 13:38 51.77828 -0.67683 37147 ft 469 kts 113°
2026-05-01 13:39 51.75562 -0.57734 37147 ft 469 kts 113°
2026-05-01 13:39 51.73287 -0.47794 37155 ft 469 kts 113°
2026-05-01 13:40 51.71024 -0.37958 37157 ft 469 kts 113°
2026-05-01 13:40 51.68739 -0.28069 37156 ft 469 kts 113°
2026-05-01 13:41 51.66442 -0.18173 37156 ft 469 kts 113°
2026-05-01 13:41 51.64143 -0.08315 37152 ft 469 kts 113°
2026-05-01 13:42 51.61842 0.01513 37140 ft 468 kts 114°
2026-05-01 13:42 51.59535 0.11321 37154 ft 467 kts 114°
2026-05-01 13:43 51.57209 0.21157 37155 ft 467 kts 114°
2026-05-01 13:43 51.54949 0.30665 37154 ft 467 kts 114°
2026-05-01 13:44 51.52625 0.40414 37175 ft 467 kts 114°
2026-05-01 13:44 51.50286 0.50181 37166 ft 466 kts 114°
2026-05-01 13:45 51.47944 0.59918 37182 ft 466 kts 114°
2026-05-01 13:45 51.45615 0.69551 37183 ft 465 kts 114°
2026-05-01 13:46 51.43262 0.79238 37183 ft 465 kts 114°
2026-05-01 13:46 51.40902 0.88916 37181 ft 465 kts 114°
2026-05-01 13:47 51.38525 0.98622 37177 ft 465 kts 114°
2026-05-01 13:47 51.36148 1.08282 37182 ft 465 kts 114°
2026-05-01 13:48 51.33764 1.17931 37194 ft 465 kts 114°
2026-05-01 13:48 51.31372 1.27561 37195 ft 465 kts 114°
2026-05-01 13:49 51.28993 1.37112 37196 ft 465 kts 114°
2026-05-01 13:49 51.26589 1.46722 37197 ft 464 kts 114°
2026-05-01 13:50 51.24180 1.56310 37196 ft 464 kts 114°
2026-05-01 13:50 51.21764 1.65884 37202 ft 464 kts 115°
2026-05-01 13:51 51.19354 1.75398 37204 ft 464 kts 115°
2026-05-01 13:51 51.16921 1.84952 37198 ft 464 kts 115°
2026-05-01 13:52 51.14733 1.94685 37208 ft 466 kts 109°
2026-05-01 13:52 51.13179 2.04668 37204 ft 468 kts 103°
2026-05-01 13:53 51.12268 2.14996 37190 ft 470 kts 97°
2026-05-01 13:53 51.11490 2.30607 37189 ft 471 kts 97°
2026-05-01 13:54 51.10969 2.40942 37184 ft 470 kts 97°
2026-05-01 13:54 51.10429 2.51349 37186 ft 470 kts 97°
2026-05-01 13:55 51.09758 2.61713 37190 ft 469 kts 101°
2026-05-01 13:55 51.08460 2.71861 37189 ft 467 kts 107°
2026-05-01 13:56 51.06685 2.81736 37207 ft 466 kts 109°
2026-05-01 13:56 51.04865 2.91642 37199 ft 466 kts 108°
2026-05-01 13:57 51.03346 2.99887 37202 ft 466 kts 109°
2026-05-01 13:57 51.01206 3.11461 37202 ft 466 kts 109°
2026-05-01 13:58 50.99365 3.21354 37197 ft 466 kts 109°
2026-05-01 13:58 50.97527 3.31181 37184 ft 466 kts 109°
2026-05-01 13:59 50.95662 3.41088 37196 ft 467 kts 109°
2026-05-01 13:59 50.93805 3.50919 37198 ft 467 kts 109°
2026-05-01 14:00 50.91929 3.60797 37201 ft 466 kts 109°
2026-05-01 14:00 50.90043 3.70675 37202 ft 466 kts 109°
2026-05-01 14:01 50.88149 3.80520 37206 ft 467 kts 109°
2026-05-01 14:01 50.86258 3.90317 37210 ft 467 kts 109°
2026-05-01 14:02 50.84353 4.00150 37223 ft 467 kts 109°
2026-05-01 14:02 50.82432 4.10004 37228 ft 467 kts 109°
2026-05-01 14:03 50.80501 4.19859 37235 ft 467 kts 109°
2026-05-01 14:03 50.78581 4.29610 37237 ft 467 kts 109°
2026-05-01 14:04 50.76637 4.39427 37239 ft 466 kts 109°
2026-05-01 14:04 50.75018 4.47566 37238 ft 466 kts 109°
2026-05-01 14:05 50.72725 4.59036 37240 ft 466 kts 109°
2026-05-01 14:05 50.70743 4.68885 37233 ft 467 kts 109°
2026-05-01 14:06 50.68777 4.78619 37240 ft 468 kts 109°
2026-05-01 14:06 50.66792 4.88398 37239 ft 468 kts 109°
2026-05-01 14:07 50.64796 4.98196 37241 ft 468 kts 109°
2026-05-01 14:08 50.61784 5.12873 37234 ft 468 kts 109°
2026-05-01 14:08 50.59978 5.22787 37239 ft 472 kts 105°
2026-05-01 14:09 50.58475 5.32792 37240 ft 473 kts 104°
2026-05-01 14:09 50.56942 5.42878 37242 ft 473 kts 105°
2026-05-01 14:10 50.55379 5.52945 37220 ft 473 kts 105°
2026-05-01 14:10 50.54590 5.57990 36674 ft 476 kts 105°
2026-05-01 14:10 50.53784 5.63090 35932 ft 478 kts 104°
2026-05-01 14:10 50.52978 5.68181 35235 ft 480 kts 105°
2026-05-01 14:11 50.52171 5.73278 34585 ft 481 kts 105°
2026-05-01 14:11 50.50538 5.83495 33235 ft 480 kts 105°
2026-05-01 14:11 50.49723 5.88590 32611 ft 479 kts 105°
2026-05-01 14:12 50.48903 5.93682 31984 ft 478 kts 105°
2026-05-01 14:12 50.48095 5.98686 31355 ft 478 kts 105°
2026-05-01 14:12 50.47280 6.03731 30699 ft 477 kts 105°
2026-05-01 14:12 50.46451 6.08812 30026 ft 476 kts 104°
2026-05-01 14:13 50.45631 6.13851 29321 ft 475 kts 104°
2026-05-01 14:13 50.45090 6.17177 28851 ft 474 kts 104°
2026-05-01 14:13 50.43997 6.23870 28045 ft 469 kts 104°
2026-05-01 14:13 50.43190 6.28798 27652 ft 463 kts 104°
2026-05-01 14:14 50.42388 6.33679 27174 ft 460 kts 104°
2026-05-01 14:14 50.41590 6.38516 26670 ft 456 kts 104°
2026-05-01 14:14 50.40796 6.43315 26216 ft 451 kts 104°
2026-05-01 14:14 50.40010 6.48054 25791 ft 446 kts 104°
2026-05-01 14:15 50.39227 6.52742 25354 ft 442 kts 104°
2026-05-01 14:15 50.38714 6.55818 25069 ft 439 kts 104°
2026-05-01 14:15 50.37943 6.60437 24633 ft 435 kts 104°
2026-05-01 14:15 50.37179 6.65005 24230 ft 431 kts 104°
2026-05-01 14:16 50.36418 6.69538 23826 ft 428 kts 104°
2026-05-01 14:16 50.35663 6.74021 23336 ft 424 kts 105°
2026-05-01 14:16 50.34913 6.78462 22901 ft 418 kts 105°
2026-05-01 14:16 50.34116 6.82828 22490 ft 414 kts 108°
2026-05-01 14:17 50.33158 6.87137 22316 ft 422 kts 111°
2026-05-01 14:17 50.32034 6.91398 22317 ft 423 kts 114°
2026-05-01 14:17 50.30808 6.95555 22106 ft 417 kts 115°
2026-05-01 14:17 50.29590 6.99673 21371 ft 418 kts 115°
2026-05-01 14:18 50.28367 7.03789 20744 ft 417 kts 115°
2026-05-01 14:18 50.27148 7.07883 20293 ft 412 kts 116°
2026-05-01 14:18 50.25939 7.11930 19801 ft 407 kts 116°
2026-05-01 14:18 50.24732 7.15956 19238 ft 405 kts 116°
2026-05-01 14:19 50.23537 7.19942 18706 ft 404 kts 116°
2026-05-01 14:19 50.22347 7.23904 18186 ft 400 kts 116°
2026-05-01 14:19 50.21166 7.27817 17720 ft 394 kts 116°
2026-05-01 14:19 50.20011 7.31683 17278 ft 389 kts 115°
2026-05-01 14:20 50.18990 7.35576 16838 ft 385 kts 111°
2026-05-01 14:20 50.17134 7.43363 16026 ft 376 kts 111°
2026-05-01 14:20 50.16227 7.47169 15611 ft 373 kts 111°
2026-05-01 14:21 50.15326 7.50941 15195 ft 369 kts 111°
2026-05-01 14:21 50.14430 7.54690 14786 ft 366 kts 111°
2026-05-01 14:21 50.13538 7.58409 14374 ft 363 kts 111°
2026-05-01 14:22 50.11779 7.65708 13453 ft 358 kts 111°
2026-05-01 14:22 50.10946 7.69398 12647 ft 364 kts 109°
2026-05-01 14:22 50.10192 7.73240 11990 ft 365 kts 109°
2026-05-01 14:22 50.09461 7.77006 11520 ft 361 kts 109°
2026-05-01 14:23 50.08730 7.80755 10911 ft 361 kts 108°
2026-05-01 14:23 50.08295 7.84599 10485 ft 359 kts 94°
2026-05-01 14:23 50.08511 7.88414 10305 ft 350 kts 79°
2026-05-01 14:23 50.09249 7.91989 10147 ft 342 kts 71°
2026-05-01 14:24 50.10092 7.95427 9938 ft 333 kts 72°
2026-05-01 14:24 50.10785 7.98796 9714 ft 320 kts 85°
2026-05-01 14:24 50.10670 8.02142 9416 ft 302 kts 109°
2026-05-01 14:24 50.09710 8.04916 9148 ft 285 kts 135°
2026-05-01 14:25 50.08125 8.06610 8955 ft 271 kts 161°
2026-05-01 14:25 50.06285 8.06939 8626 ft 268 kts 188°
2026-05-01 14:25 50.04564 8.05874 8192 ft 274 kts 215°
2026-05-01 14:25 50.03336 8.03616 7851 ft 277 kts 239°
2026-05-01 14:26 50.02441 8.00968 7472 ft 275 kts 238°
2026-05-01 14:26 50.00691 7.95700 6770 ft 273 kts 239°
2026-05-01 14:26 49.99818 7.93055 6410 ft 271 kts 239°
2026-05-01 14:27 49.98954 7.90450 6015 ft 271 kts 238°
2026-05-01 14:27 49.97780 7.88243 5659 ft 262 kts 208°
2026-05-01 14:27 49.96088 7.87445 5314 ft 253 kts 179°
2026-05-01 14:28 49.92960 7.89388 4618 ft 250 kts 134°
2026-05-01 14:28 49.91849 7.91423 4408 ft 242 kts 130°
2026-05-01 14:28 49.90801 7.93413 4226 ft 233 kts 130°
2026-05-01 14:28 49.89874 7.95421 4053 ft 226 kts 115°
2026-05-01 14:29 49.89516 7.97745 4013 ft 222 kts 92°
2026-05-01 14:29 49.89791 8.00112 3992 ft 226 kts 74°
2026-05-01 14:30 49.91478 8.06991 3990 ft 226 kts 72°
2026-05-01 14:30 49.92038 8.09245 4002 ft 226 kts 73°
2026-05-01 14:30 49.92600 8.11519 4036 ft 221 kts 72°
2026-05-01 14:31 49.93767 8.15828 4000 ft 208 kts 71°
2026-05-01 14:31 49.94304 8.17826 3993 ft 196 kts 71°
2026-05-01 14:31 49.94801 8.19785 3982 ft 193 kts 72°
2026-05-01 14:31 49.95278 8.21741 4000 ft 194 kts 73°
2026-05-01 14:32 49.95745 8.23703 4016 ft 193 kts 73°
2026-05-01 14:32 49.96207 8.25665 3991 ft 189 kts 73°
2026-05-01 14:32 49.96646 8.27538 3793 ft 184 kts 73°
2026-05-01 14:32 49.97078 8.29385 3544 ft 179 kts 73°
2026-05-01 14:33 49.97500 8.31197 3278 ft 177 kts 73°
2026-05-01 14:33 49.97921 8.32997 3073 ft 177 kts 72°
2026-05-01 14:33 49.98348 8.34812 2815 ft 178 kts 72°
2026-05-01 14:33 49.98774 8.36617 2631 ft 176 kts 73°
2026-05-01 14:34 49.99188 8.38377 2374 ft 175 kts 73°
2026-05-01 14:34 49.99614 8.40182 2149 ft 175 kts 73°
2026-05-01 14:34 50.00032 8.41944 1900 ft 171 kts 72°
2026-05-01 14:34 50.00428 8.43611 1688 ft 158 kts 72°
2026-05-01 14:35 50.00800 8.45161 1410 ft 147 kts 73°
2026-05-01 14:35 50.01164 8.46652 1178 ft 147 kts 72°
2026-05-01 14:35 50.01526 8.48133 1036 ft 147 kts 72°
2026-05-01 14:35 50.01881 8.49636 872 ft 148 kts 73°
2026-05-01 14:36 50.02231 8.51117 718 ft 143 kts 75°
2026-05-01 14:36 50.02553 8.52539 508 ft 142 kts 73°
2026-05-01 14:36 50.02911 8.54009 356 ft 145 kts 73°
2026-05-01 14:36 50.03209 8.55315 360 ft 101 kts 72°
2026-05-01 14:37 50.03393 8.56082 364 ft 56 kts 69°
2026-05-01 14:37 50.03523 8.56628 365 ft 52 kts 69°
2026-05-01 14:37 50.03647 8.56998 366 ft 34 kts 49°
2026-05-01 14:37 50.03815 8.57226 371 ft 27 kts 40°
2026-05-01 14:38 50.03922 8.57368 377 ft 18 kts 46°
2026-05-01 14:38 50.03983 8.57522 378 ft 16 kts 58°
2026-05-01 14:38 50.04029 8.57698 380 ft 19 kts 70°
2026-05-01 14:38 50.04073 8.57905 376 ft 21 kts 71°
2026-05-01 14:39 50.04127 8.58099 379 ft 17 kts 47°
2026-05-01 14:39 50.04237 8.58194 378 ft 19 kts
2026-05-01 14:39 50.04348 8.58138 375 ft 16 kts 308°
2026-05-01 14:39 50.04427 8.58098 376 ft 13 kts 353°
2026-05-01 14:40 50.04522 8.58047 378 ft 15 kts 300°
2026-05-01 14:40 50.04506 8.57869 376 ft 18 kts 248°
2026-05-01 14:40 50.04458 8.57670 376 ft 21 kts 250°
2026-05-01 14:40 50.04404 8.57441 373 ft 24 kts 250°
2026-05-01 14:41 50.04347 8.57202 373 ft 22 kts 250°
2026-05-01 14:41 50.04292 8.56970 371 ft 18 kts 249°
2026-05-01 14:41 50.04285 8.56856 375 ft 6 kts 316°
2026-05-01 14:41 50.04341 8.56837 372 ft 10 kts
2026-05-01 14:42 50.04422 8.56847 373 ft 13 kts
2026-05-01 14:42 50.04505 8.56873 367 ft 11 kts 12°
2026-05-01 14:42 50.04554 8.56888 371 ft 6 kts 358°
2026-05-01 14:42 50.04582 8.56845 369 ft 5 kts 303°
2026-05-01 14:43 50.04594 8.56812 371 ft 2 kts 297°
2026-05-01 14:43 50.04598 8.56798 371 ft 0 kts 297°
2026-05-01 14:43 50.04600 8.56793 371 ft 2 kts 297°
2026-05-01 14:43 50.04602 8.56788 369 ft 0 kts 296°